Weather History for KJMR - November, 2011

Change the Weather History Date:

Wednesday, November 30, 2011

  Actual Average Record
Temperature  
Mean Temperature 24 °F -  
Max Temperature 32 °F 32 °F 52 °F (1939)
Min Temperature 15 °F 11 °F -25 °F (1964)
Degree Days  
Heating Degree Days 42    
Moisture  
Dew Point 16 °F    
Average Humidity 70    
Maximum Humidity 86    
Minimum Humidity 55    
Precipitation  
Precipitation 0.00 in - - ()
Sea Level Pressure  
Sea Level Pressure 29.94 in    
Wind  
Wind Speed 0 mph (SW)    
Max Wind Speed 5 mph    
Max Gust Speed -    
Visibility 10 miles    
Events      
Averages and records for this station are not official NWS values.
T = Trace of Precipitation, MM = Missing Value Source: NWS Daily Summary

Daily Weather History Graph

Daily Weather History Graph

Search for Another Location

Airport or City:

Trip Planner

Search our weather history database for the weather conditions in past years. The results will help you decide how hot, cold, wet, or windy it might be!

Date:

Astronomy

Nov. 30, 2011 Rise Set
Actual Time 7:32 AM CST 4:30 PM CST
Civil Twilight 6:58 AM CST 5:04 PM CST
Nautical Twilight 6:21 AM CST 5:41 PM CST
Astronomical Twilight 5:45 AM CST 6:17 PM CST
Moon 11:41 AM CST (11/30) 10:39 PM CST (11/30)
Length of Visible Light 10h 05m
Length of Day
8h 57m
Waxing Crescent, 34% of the Moon is Illuminated
Nov 30
Waxing Crescent
Dec 2
First Quarter
Dec 10
Full
Dec 17
Last Quarter
Dec 24
New

Hourly Weather History & Observations

Time (CST) Temp. Windchill Dew Point Humidity Pressure Visibility Wind Dir Wind Speed Gust Speed Precip Events Conditions
12:15 AM 17.6 °F - 12.2 °F 79% 30.06 in 10.0 mi Calm Calm - N/A   Clear
12:34 AM 17.6 °F - 12.2 °F 79% 30.05 in 10.0 mi Calm Calm - N/A   Clear
12:55 AM 17.6 °F - 12.2 °F 79% 30.04 in 10.0 mi Calm Calm - N/A   Clear
1:15 AM 15.8 °F - 12.2 °F 86% 30.03 in 10.0 mi Calm Calm - N/A   Clear
1:54 AM 17.6 °F - 12.2 °F 79% 30.02 in 10.0 mi Calm Calm - N/A   Clear
2:15 AM 19.4 °F - 12.2 °F 74% 30.01 in 10.0 mi Calm Calm - N/A   Clear
2:35 AM 19.4 °F - 12.2 °F 74% 30.01 in 10.0 mi Calm Calm - N/A   Clear
2:54 AM 19.4 °F - 14.0 °F 80% 30.00 in 10.0 mi Calm Calm - N/A   Clear
3:15 AM 19.4 °F - 14.0 °F 80% 29.99 in 10.0 mi Calm Calm - N/A   Clear
3:35 AM 21.2 °F - 14.0 °F 74% 29.98 in 10.0 mi Calm Calm - N/A   Clear
3:55 AM 21.2 °F - 14.0 °F 74% 29.97 in 10.0 mi Calm Calm - N/A   Clear
4:15 AM 21.2 °F - 12.2 °F 68% 29.97 in 10.0 mi Calm Calm - N/A   Clear
4:34 AM 19.4 °F - 14.0 °F 80% 29.97 in 10.0 mi Calm Calm - N/A   Clear
4:55 AM 17.6 °F - 14.0 °F 86% 29.96 in 10.0 mi Calm Calm - N/A   Clear
5:14 AM 17.6 °F - 12.2 °F 79% 29.95 in 10.0 mi Calm Calm - N/A   Clear
5:35 AM 17.6 °F - 12.2 °F 79% 29.94 in 10.0 mi Calm Calm - N/A   Clear
5:55 AM 17.6 °F - 12.2 °F 79% 29.94 in 10.0 mi Calm Calm - N/A   Clear
6:15 AM 17.6 °F - 14.0 °F 86% 29.94 in 10.0 mi Calm Calm - N/A   Clear
6:35 AM 17.6 °F - 12.2 °F 79% 29.93 in 10.0 mi Calm Calm - N/A   Clear
6:54 AM 17.6 °F - 14.0 °F 86% 29.93 in 10.0 mi Calm Calm - N/A   Clear
7:15 AM 17.6 °F - 14.0 °F 86% 29.92 in 10.0 mi Calm Calm - N/A   Clear
7:35 AM 17.6 °F - 14.0 °F 86% 29.92 in 10.0 mi Calm Calm - N/A   Clear
7:55 AM 19.4 °F - 14.0 °F 80% 29.92 in 10.0 mi Calm Calm - N/A   Clear
8:35 AM 21.2 °F - 17.6 °F 86% 29.92 in 10.0 mi Calm Calm - N/A   Clear
8:55 AM 23.0 °F - 17.6 °F 80% 29.91 in 10.0 mi Calm Calm - N/A   Clear
9:14 AM 24.8 °F - 15.8 °F 69% 29.91 in 10.0 mi Calm Calm - N/A   Clear
9:35 AM 26.6 °F - 17.6 °F 69% 29.91 in 10.0 mi Calm Calm - N/A   Clear
10:15 AM 26.6 °F 21.2 °F 17.6 °F 69% 29.92 in 10.0 mi SSW 4.6 mph - N/A   Clear
10:34 AM 28.4 °F - 17.6 °F 64% 29.92 in 10.0 mi Calm Calm - N/A   Clear
10:55 AM 30.2 °F 26.7 °F 17.6 °F 60% 29.92 in 10.0 mi WSW 3.5 mph - N/A   Scattered Clouds
11:34 AM 30.2 °F - 17.6 °F 60% 29.91 in 10.0 mi Calm Calm - N/A   Overcast
11:55 AM 32.0 °F 28.7 °F 19.4 °F 60% 29.90 in 10.0 mi SW 3.5 mph - N/A   Overcast
12:15 PM 32.0 °F - 19.4 °F 60% 29.90 in 10.0 mi Calm Calm - N/A   Overcast
12:35 PM 32.0 °F - 17.6 °F 55% 29.89 in 10.0 mi Calm Calm - N/A   Overcast
12:55 PM 32.0 °F - 17.6 °F 55% 29.89 in 10.0 mi Calm Calm - N/A   Overcast
1:15 PM 32.0 °F - 17.6 °F 55% 29.88 in 10.0 mi Calm Calm - N/A   Overcast
1:35 PM 32.0 °F - 17.6 °F 55% 29.88 in 10.0 mi Calm Calm - N/A   Overcast
1:55 PM 32.0 °F - 17.6 °F 55% 29.89 in 10.0 mi Calm Calm - N/A   Overcast
2:15 PM 32.0 °F - 17.6 °F 55% 29.90 in 10.0 mi Calm Calm - N/A   Overcast
2:35 PM 32.0 °F - 17.6 °F 55% 29.90 in 10.0 mi Calm Calm - N/A   Overcast
2:54 PM 32.0 °F - 17.6 °F 55% 29.90 in 10.0 mi Calm Calm - N/A   Mostly Cloudy
3:15 PM 32.0 °F - 17.6 °F 55% 29.91 in 10.0 mi Calm Calm - N/A   Scattered Clouds
3:35 PM 32.0 °F - 17.6 °F 55% 29.92 in 10.0 mi Calm Calm - N/A   Scattered Clouds
3:55 PM 32.0 °F - 17.6 °F 55% 29.93 in 10.0 mi Calm Calm - N/A   Mostly Cloudy
4:15 PM 32.0 °F - 19.4 °F 60% 29.94 in 10.0 mi Calm Calm - N/A   Overcast
4:35 PM 32.0 °F - 19.4 °F 60% 29.94 in 10.0 mi Calm Calm - N/A   Overcast
5:14 PM 32.0 °F - 19.4 °F 60% 29.95 in 10.0 mi Calm Calm - N/A   Mostly Cloudy
5:35 PM 32.0 °F - 19.4 °F 60% 29.97 in 10.0 mi Calm Calm - N/A   Overcast
5:55 PM 32.0 °F - 21.2 °F 64% 29.98 in 10.0 mi Calm Calm - N/A   Overcast
6:15 PM 32.0 °F - 21.2 °F 64% 29.99 in 10.0 mi Calm Calm - N/A   Overcast
6:35 PM 32.0 °F - 21.2 °F 64% 29.99 in 10.0 mi Calm Calm - N/A Snow Light Snow
6:55 PM 32.0 °F - 23.0 °F 69% 30.00 in 7.0 mi Calm Calm - N/A Snow Light Snow
7:15 PM 32.0 °F - 24.8 °F 75% 30.01 in 7.0 mi Calm Calm - N/A Snow Light Snow
7:35 PM 32.0 °F - 26.6 °F 80% 30.02 in 5.0 mi Calm Calm - N/A Snow Light Snow
7:55 PM 32.0 °F - 26.6 °F 80% 30.03 in 5.0 mi Calm Calm - N/A Snow Light Snow
8:14 PM 32.0 °F - 28.4 °F 87% 30.04 in 5.0 mi Calm Calm - N/A Snow Light Snow
8:35 PM 32.0 °F - 28.4 °F 87% 30.05 in 4.0 mi Calm Calm - N/A Snow Light Snow
8:55 PM 32.0 °F - 28.4 °F 87% 30.05 in 5.0 mi Calm Calm - N/A Snow Light Snow
9:15 PM 32.0 °F - 28.4 °F 87% 30.05 in 5.0 mi Calm Calm - N/A Snow Light Snow
9:34 PM 32.0 °F - 28.4 °F 87% 30.07 in 5.0 mi Calm Calm - N/A Snow Light Snow
9:55 PM 32.0 °F - 28.4 °F 87% 30.07 in 7.0 mi Calm Calm - N/A Snow Light Snow
10:15 PM 32.0 °F - 28.4 °F 87% 30.07 in 10.0 mi Calm Calm - N/A   Overcast
10:35 PM 32.0 °F 28.7 °F 28.4 °F 87% 30.08 in 10.0 mi NNE 3.5 mph - N/A   Overcast
10:55 PM 32.0 °F - 28.4 °F 87% 30.10 in 10.0 mi Calm Calm - N/A Snow Light Snow
11:15 PM 32.0 °F - 28.4 °F 87% 30.11 in 10.0 mi Calm Calm - N/A   Overcast
11:35 PM 32.0 °F 28.7 °F 28.4 °F 87% 30.11 in 10.0 mi NNE 3.5 mph - N/A   Overcast
11:55 PM 32.0 °F 28.7 °F 28.4 °F 87% 30.11 in 10.0 mi NNE 3.5 mph - N/A   Overcast